Time,TemperatureF,DewpointF,PressureIn,WindDirection,WindDirectionDegrees,WindSpeedMPH,WindSpeedGustMPH,Humidity,HourlyPrecipIn,Conditions,Clouds,dailyrainin,SolarRadiationWatts/m^2,SoftwareType,DateUTC
2013-08-25 00:23:00,77.0,72.0,-100.00,SSE,162,13.0,16.0,85,0.00,,,0.00,0.000000,,2013-08-25 05:23:00,
2013-08-25 00:34:00,77.0,72.0,-100.00,SSE,162,13.0,16.0,85,0.00,,,0.00,0.000000,,2013-08-25 05:34:00,
2013-08-25 00:42:00,77.0,72.0,-100.00,SSE,162,13.0,16.0,85,0.00,,,0.00,0.000000,,2013-08-25 05:42:00,
2013-08-25 00:52:00,77.0,72.0,-100.00,SSE,162,13.0,16.0,85,0.00,,,0.00,0.000000,,2013-08-25 05:52:00,
2013-08-25 01:22:00,76.0,72.0,-100.00,SSE,166,13.0,19.0,87,0.00,,,0.00,0.000000,,2013-08-25 06:22:00,
2013-08-25 01:32:00,76.0,72.0,-100.00,SSE,166,13.0,19.0,87,0.00,,,0.00,0.000000,,2013-08-25 06:32:00,
2013-08-25 01:43:00,76.0,72.0,-100.00,SSE,166,13.0,19.0,87,0.00,,,0.00,0.000000,,2013-08-25 06:43:00,
2013-08-25 01:52:00,76.0,72.0,-100.00,SSE,166,13.0,19.0,87,0.00,,,0.00,0.000000,,2013-08-25 06:52:00,
2013-08-25 02:22:00,76.0,73.0,-100.00,South,173,12.0,17.0,89,0.00,,,0.00,0.000000,,2013-08-25 07:22:00,
2013-08-25 02:32:00,76.0,73.0,-100.00,South,173,12.0,17.0,89,0.00,,,0.00,0.000000,,2013-08-25 07:32:00,
2013-08-25 02:42:00,76.0,73.0,-100.00,South,173,12.0,17.0,89,0.00,,,0.00,0.000000,,2013-08-25 07:42:00,
2013-08-25 02:52:00,76.0,73.0,-100.00,South,173,12.0,17.0,89,0.00,,,0.00,0.000000,,2013-08-25 07:52:00,
2013-08-25 03:21:00,75.0,73.0,-100.00,South,169,11.0,16.0,92,0.00,,,0.00,0.000000,,2013-08-25 08:21:00,
2013-08-25 03:32:00,75.0,73.0,-100.00,South,169,11.0,16.0,92,0.00,,,0.00,0.000000,,2013-08-25 08:32:00,
2013-08-25 03:42:00,75.0,73.0,-100.00,South,169,11.0,16.0,92,0.00,,,0.00,0.000000,,2013-08-25 08:42:00,
2013-08-25 03:52:00,75.0,73.0,-100.00,South,169,11.0,16.0,92,0.00,,,0.00,0.000000,,2013-08-25 08:52:00,
2013-08-25 04:22:00,74.0,72.0,-100.00,South,169,11.0,16.0,92,0.00,,,0.00,0.000000,,2013-08-25 09:22:00,
2013-08-25 04:34:00,74.0,72.0,-100.00,South,169,11.0,16.0,92,0.00,,,0.00,0.000000,,2013-08-25 09:34:00,
2013-08-25 04:44:00,74.0,72.0,-100.00,South,169,11.0,16.0,92,0.00,,,0.00,0.000000,,2013-08-25 09:44:00,
2013-08-25 04:55:00,74.0,72.0,-100.00,South,169,11.0,16.0,92,0.00,,,0.00,0.000000,,2013-08-25 09:55:00,
2013-08-25 05:23:00,73.0,71.0,-100.00,South,170,9.0,16.0,94,0.00,,,0.00,0.000000,,2013-08-25 10:23:00,
2013-08-25 05:33:00,73.0,71.0,-100.00,South,170,9.0,16.0,94,0.00,,,0.00,0.000000,,2013-08-25 10:33:00,
2013-08-25 05:42:00,73.0,71.0,-100.00,South,170,9.0,16.0,94,0.00,,,0.00,0.000000,,2013-08-25 10:42:00,
2013-08-25 05:53:00,73.0,71.0,-100.00,South,170,9.0,16.0,94,0.00,,,0.00,0.000000,,2013-08-25 10:53:00,
2013-08-25 06:22:00,72.0,71.0,-100.00,SSE,166,10.0,14.0,98,0.00,,,0.00,0.000000,,2013-08-25 11:22:00,
2013-08-25 06:33:00,72.0,71.0,-100.00,SSE,166,10.0,14.0,98,0.00,,,0.00,0.000000,,2013-08-25 11:33:00,
2013-08-25 06:42:00,72.0,71.0,-100.00,SSE,166,10.0,14.0,98,0.00,,,0.00,0.000000,,2013-08-25 11:42:00,
2013-08-25 06:52:00,72.0,71.0,-100.00,SSE,166,10.0,14.0,98,0.00,,,0.00,0.000000,,2013-08-25 11:52:00,
2013-08-25 07:22:00,72.0,71.0,-100.00,SSE,166,10.0,15.0,97,0.00,,,-99.99,0.000000,,2013-08-25 12:22:00,
2013-08-25 07:32:00,72.0,71.0,-100.00,SSE,166,10.0,15.0,97,0.00,,,-99.99,0.000000,,2013-08-25 12:32:00,
2013-08-25 07:43:00,72.0,71.0,-100.00,SSE,166,10.0,15.0,97,0.00,,,-99.99,0.000000,,2013-08-25 12:43:00,
2013-08-25 07:52:00,72.0,71.0,-100.00,SSE,166,10.0,15.0,97,0.00,,,-99.99,0.000000,,2013-08-25 12:52:00,
2013-08-25 08:21:00,74.0,73.0,-100.00,South,170,12.0,16.0,96,0.00,,,-99.99,0.000000,,2013-08-25 13:21:00,
2013-08-25 08:32:00,74.0,73.0,-100.00,South,170,12.0,16.0,96,0.00,,,-99.99,0.000000,,2013-08-25 13:32:00,
2013-08-25 08:42:00,74.0,73.0,-100.00,South,170,12.0,16.0,96,0.00,,,-99.99,0.000000,,2013-08-25 13:42:00,
2013-08-25 08:52:00,74.0,73.0,-100.00,South,170,12.0,16.0,96,0.00,,,-99.99,0.000000,,2013-08-25 13:52:00,
2013-08-25 09:25:00,77.0,73.0,-100.00,South,169,14.0,21.0,88,0.00,,,0.00,0.000000,,2013-08-25 14:25:00,
2013-08-25 09:32:00,77.0,73.0,-100.00,South,169,14.0,21.0,88,0.00,,,0.00,0.000000,,2013-08-25 14:32:00,
2013-08-25 09:42:00,77.0,73.0,-100.00,South,169,14.0,21.0,88,0.00,,,0.00,0.000000,,2013-08-25 14:42:00,
2013-08-25 09:52:00,77.0,73.0,-100.00,South,169,14.0,21.0,88,0.00,,,0.00,0.000000,,2013-08-25 14:52:00,
2013-08-25 10:23:00,80.0,73.0,-100.00,South,183,14.0,21.0,79,0.00,,,0.00,0.000000,,2013-08-25 15:23:00,
2013-08-25 10:35:00,80.0,73.0,-100.00,South,183,14.0,21.0,79,0.00,,,0.00,0.000000,,2013-08-25 15:35:00,
2013-08-25 10:44:00,80.0,73.0,-100.00,South,183,14.0,21.0,79,0.00,,,0.00,0.000000,,2013-08-25 15:44:00,
2013-08-25 10:54:00,80.0,73.0,-100.00,South,183,14.0,21.0,79,0.00,,,0.00,0.000000,,2013-08-25 15:54:00,
2013-08-25 11:24:00,83.0,73.0,-100.00,South,186,16.0,23.0,71,0.00,,,0.00,0.000000,,2013-08-25 16:24:00,
2013-08-25 11:33:00,83.0,73.0,-100.00,South,186,16.0,23.0,71,0.00,,,0.00,0.000000,,2013-08-25 16:33:00,
2013-08-25 11:44:00,83.0,73.0,-100.00,South,186,16.0,23.0,71,0.00,,,0.00,0.000000,,2013-08-25 16:44:00,
2013-08-25 11:53:00,83.0,73.0,-100.00,South,186,16.0,23.0,71,0.00,,,0.00,0.000000,,2013-08-25 16:53:00,
2013-08-25 12:23:00,86.0,74.0,-100.00,South,187,14.0,22.0,68,0.00,,,0.00,0.000000,,2013-08-25 17:23:00,
2013-08-25 12:34:00,86.0,74.0,-100.00,South,187,14.0,22.0,68,0.00,,,0.00,0.000000,,2013-08-25 17:34:00,
2013-08-25 12:43:00,86.0,74.0,-100.00,South,187,14.0,22.0,68,0.00,,,0.00,0.000000,,2013-08-25 17:43:00,
2013-08-25 12:53:00,86.0,74.0,-100.00,South,187,14.0,22.0,68,0.00,,,0.00,0.000000,,2013-08-25 17:53:00,
2013-08-25 13:22:00,88.0,73.0,-100.00,South,182,14.0,20.0,62,0.00,,,-99.99,0.000000,,2013-08-25 18:22:00,
2013-08-25 13:32:00,88.0,73.0,-100.00,South,182,14.0,20.0,62,0.00,,,-99.99,0.000000,,2013-08-25 18:32:00,
2013-08-25 13:43:00,88.0,73.0,-100.00,South,182,14.0,20.0,62,0.00,,,-99.99,0.000000,,2013-08-25 18:43:00,
2013-08-25 13:52:00,88.0,73.0,-100.00,South,182,14.0,20.0,62,0.00,,,-99.99,0.000000,,2013-08-25 18:52:00,
2013-08-25 14:22:00,90.0,73.0,-100.00,South,169,13.0,20.0,58,0.00,,,0.00,0.000000,,2013-08-25 19:22:00,
2013-08-25 14:32:00,90.0,73.0,-100.00,South,169,13.0,20.0,58,0.00,,,0.00,0.000000,,2013-08-25 19:32:00,
2013-08-25 14:42:00,90.0,73.0,-100.00,South,169,13.0,20.0,58,0.00,,,0.00,0.000000,,2013-08-25 19:42:00,
2013-08-25 14:53:00,90.0,73.0,-100.00,South,169,13.0,20.0,58,0.00,,,0.00,0.000000,,2013-08-25 19:53:00,
2013-08-25 15:23:00,91.0,72.0,-100.00,South,172,14.0,19.0,54,0.00,,,0.00,0.000000,,2013-08-25 20:23:00,
2013-08-25 15:33:00,91.0,72.0,-100.00,South,172,14.0,19.0,54,0.00,,,0.00,0.000000,,2013-08-25 20:33:00,
2013-08-25 15:43:00,91.0,72.0,-100.00,South,172,14.0,19.0,54,0.00,,,0.00,0.000000,,2013-08-25 20:43:00,
2013-08-25 15:53:00,91.0,72.0,-100.00,South,172,14.0,19.0,54,0.00,,,0.00,0.000000,,2013-08-25 20:53:00,
2013-08-25 16:22:00,91.0,70.0,-100.00,SSE,166,12.0,20.0,51,0.00,,,0.00,0.000000,,2013-08-25 21:22:00,
2013-08-25 16:34:00,91.0,70.0,-100.00,SSE,166,12.0,20.0,51,0.00,,,0.00,0.000000,,2013-08-25 21:34:00,
2013-08-25 16:43:00,91.0,70.0,-100.00,SSE,166,12.0,20.0,51,0.00,,,0.00,0.000000,,2013-08-25 21:43:00,
2013-08-25 16:54:00,91.0,70.0,-100.00,SSE,166,12.0,20.0,51,0.00,,,0.00,0.000000,,2013-08-25 21:54:00,
2013-08-25 17:24:00,90.0,72.0,-100.00,SSE,162,11.0,17.0,55,0.00,,,0.00,0.000000,,2013-08-25 22:24:00,
2013-08-25 17:34:00,90.0,72.0,-100.00,SSE,162,11.0,17.0,55,0.00,,,0.00,0.000000,,2013-08-25 22:34:00,
2013-08-25 17:43:00,90.0,72.0,-100.00,SSE,162,11.0,17.0,55,0.00,,,0.00,0.000000,,2013-08-25 22:43:00,
2013-08-25 17:53:00,90.0,72.0,-100.00,SSE,162,11.0,17.0,55,0.00,,,0.00,0.000000,,2013-08-25 22:53:00,
2013-08-25 18:23:00,87.0,70.0,-100.00,SSE,151,9.0,16.0,58,0.00,,,0.00,0.000000,,2013-08-25 23:23:00,
2013-08-25 18:34:00,87.0,70.0,-100.00,SSE,151,9.0,16.0,58,0.00,,,0.00,0.000000,,2013-08-25 23:34:00,
2013-08-25 18:43:00,87.0,70.0,-100.00,SSE,151,9.0,16.0,58,0.00,,,0.00,0.000000,,2013-08-25 23:43:00,
2013-08-25 18:53:00,87.0,70.0,-100.00,SSE,151,9.0,16.0,58,0.00,,,0.00,0.000000,,2013-08-25 23:53:00,
2013-08-25 19:22:00,85.0,73.0,-100.00,SSE,148,8.0,11.0,68,0.00,,,0.00,0.000000,,2013-08-26 00:22:00,
2013-08-25 19:32:00,85.0,73.0,-100.00,SSE,148,8.0,11.0,68,0.00,,,0.00,0.000000,,2013-08-26 00:32:00,
2013-08-25 19:42:00,85.0,73.0,-100.00,SSE,148,8.0,11.0,68,0.00,,,0.00,0.000000,,2013-08-26 00:42:00,
2013-08-25 19:52:00,85.0,73.0,-100.00,SSE,148,8.0,11.0,68,0.00,,,0.00,0.000000,,2013-08-26 00:52:00,
2013-08-25 20:22:00,83.0,75.0,-100.00,SSE,149,9.0,13.0,76,0.00,,,0.00,0.000000,,2013-08-26 01:22:00,
2013-08-25 20:32:00,83.0,75.0,-100.00,SSE,149,9.0,13.0,76,0.00,,,0.00,0.000000,,2013-08-26 01:32:00,
2013-08-25 20:42:00,83.0,75.0,-100.00,SSE,149,9.0,13.0,76,0.00,,,0.00,0.000000,,2013-08-26 01:42:00,
2013-08-25 20:52:00,83.0,75.0,-100.00,SSE,149,9.0,13.0,76,0.00,,,0.00,0.000000,,2013-08-26 01:52:00,
2013-08-25 21:22:00,80.0,73.0,-100.00,SSE,152,10.0,14.0,80,0.00,,,0.00,0.000000,,2013-08-26 02:22:00,
2013-08-25 21:32:00,80.0,73.0,-100.00,SSE,152,10.0,14.0,80,0.00,,,0.00,0.000000,,2013-08-26 02:32:00,
2013-08-25 21:42:00,80.0,73.0,-100.00,SSE,152,10.0,14.0,80,0.00,,,0.00,0.000000,,2013-08-26 02:42:00,
2013-08-25 21:52:00,80.0,73.0,-100.00,SSE,152,10.0,14.0,80,0.00,,,0.00,0.000000,,2013-08-26 02:52:00,
2013-08-25 21:56:00,78.0,72.0,-100.00,SSE,149,9.0,12.0,83,0.00,,,0.00,0.000000,,2013-08-26 02:56:00,
2013-08-25 22:22:00,78.0,72.0,-100.00,SSE,149,9.0,12.0,83,0.00,,,0.00,0.000000,,2013-08-26 03:22:00,
2013-08-25 22:34:00,78.0,72.0,-100.00,SSE,149,9.0,12.0,83,0.00,,,0.00,0.000000,,2013-08-26 03:34:00,
2013-08-25 22:44:00,78.0,72.0,-100.00,SSE,149,9.0,12.0,83,0.00,,,0.00,0.000000,,2013-08-26 03:44:00,
2013-08-25 23:24:00,78.0,71.0,-100.00,SSE,161,11.0,15.0,80,0.00,,,0.00,0.000000,,2013-08-26 04:24:00,
2013-08-25 23:34:00,78.0,71.0,-100.00,SSE,161,11.0,15.0,80,0.00,,,0.00,0.000000,,2013-08-26 04:34:00,
2013-08-25 23:44:00,78.0,71.0,-100.00,SSE,161,11.0,15.0,80,0.00,,,0.00,0.000000,,2013-08-26 04:44:00,
2013-08-25 23:53:00,78.0,71.0,-100.00,SSE,161,11.0,15.0,80,0.00,,,0.00,0.000000,,2013-08-26 04:53:00,